CAPE
1133 994 824 958 788 888 795 810 623 673 285 29 0 0 0 345 0 0 0 0 0 0 5 0 2 11 3 8 11 20 0 2 6
584 778 985 1032 857 930 986 974 910 647 648 366 47 0 0 0 0 0 0 0 0 0 0 7 3 3 15 2 4 6 6 3 6
559 610 728 951 680 506 680 865 891 907 663 687 519 89 0 0 0 0 0 0 26 2 0 0 0 3 11 5 2 5 3 7 9
329 110 209 574 696 957 822 663 946 1016 903 831 731 637 240 0 0 0 0 0 12 16 11 3 1 3 6 2 3 2 1 6 5
0 0 0 0 3 344 467 788 854 722 1056 979 794 696 502 28 0 0 0 0 35 58 36 29 3 1 0 2 2 3 4 6 15
0 0 0 0 0 0 13 66 439 751 561 540 615 564 203 161 0 0 0 0 26 119 66 26 26 4 4 1 0 0 0 15 6
0 0 0 0 0 0 0 0 0 10 171 408 351 302 233 135 138 13 0 1 89 228 121 64 44 18 5 3 0 0 0 1 2
0 0 0 0 0 0 0 0 0 0 0 67 262 353 268 209 114 69 48 20 147 281 213 141 88 27 14 5 0 0 1 7 4
0 0 0 0 0 0 0 0 0 0 0 1 59 254 294 274 198 117 91 62 61 223 342 278 161 90 18 11 3 0 1 4 13
0 0 0 0 0 0 0 0 0 0 0 0 1 44 248 289 279 134 147 167 121 171 300 398 269 124 50 28 6 3 2 4 10
0 0 0 0 0 0 0 0 0 0 0 0 0 1 30 264 264 212 159 230 205 147 178 468 485 212 83 30 19 4 1 1 3
0 0 0 0 0 0 0 0 0 0 0 0 0 0 0 5 168 206 175 95 123 216 128 284 699 477 209 72 35 8 1 1 2
0 0 0 0 0 0 0 0 0 0 0 0 0 0 0 0 13 159 186 161 115 157 230 168 482 665 453 221 70 22 7 3 4
0 0 0 0 0 0 0 0 0 0 0 0 0 0 0 0 0 0 144 183 165 152 222 225 276 567 607 440 216 49 23 6 4
0 0 0 0 0 0 0 0 0 0 0 0 0 0 0 0 0 0 11 144 180 171 171 217 245 260 563 545 415 142 33 15 8
0 0 0 0 0 0 0 0 0 0 0 0 0 0 0 0 1 1 0 90 173 196 174 138 190 368 345 409 394 237 149 21 6
0 0 0 0 0 0 0 0 0 0 0 0 3 0 0 0 1 9 42 70 167 204 180 212 229 218 367 149 211 332 251 98 50
0 0 0 0 0 0 0 0 0 0 0 0 0 1 21 4 71 98 89 82 133 97 135 179 202 206 196 226 194 149 190 253 132
0 0 0 0 0 0 0 0 0 0 0 0 0 0 2 1 15 45 36 23 34 166 146 138 109 92 86 103 133 108 77 169 183
0 0 0 0 0 0 0 0 1 0 0 0 0 0 0 0 4 2 29 1 0 0 36 113 116 67 76 71 90 122 94 70 63
CIN
0 0 -1 -0 -2 -1 -0 -0 -1 0 -13 -78 0 0 0 -0 0 0 0 0 0 0 -2 -0 -0 -1 -1 -0 -3 -3 0 -0 0
-2 -2 -0 -0 -0 -0 -1 0 0 -1 0 -4 -46 0 0 0 0 0 0 0 0 0 0 -2 0 -0 -4 -1 -0 -1 -1 -0 -2
-4 -2 0 0 -4 -8 -1 0 -0 0 -1 0 -0 -21 0 0 0 0 0 0 -69 0 0 -0 -0 0 -1 -1 -0 -0 -0 -3 -1
-14 -55 -35 -1 0 0 -1 -4 -0 0 -0 -0 0 0 -3 0 0 0 0 0 -1 -0 -0 -0 0 -0 0 -0 -0 -0 -0 -1 -1
0 0 0 0 -4 -9 -1 0 0 -2 -0 -0 -1 -1 -1 -22 0 0 0 0 -26 -36 -0 0 -0 -0 -0 -0 -0 0 -0 -2 -7
0 0 0 0 0 0 -31 -64 -11 0 -5 -6 -4 -3 -15 -21 0 0 0 0 -1 -50 -0 0 -0 -0 -0 -0 -0 0 0 -2 -5
0 0 0 0 0 0 0 0 0 -57 -50 -13 -8 -11 -18 -10 -22 -51 0 -2 -16 -33 -0 -0 -0 -2 -0 -0 0 0 0 -0 -2
0 0 0 0 0 0 0 0 0 0 0 -69 -18 -16 -13 -24 -39 -42 -65 -73 -21 -4 -0 0 -4 -3 -6 -0 -0 0 0 0 -0
0 0 0 0 0 0 0 0 0 0 0 0 -79 -44 -19 -11 -29 -40 -38 -54 -33 -12 -0 -0 -2 -6 -8 -1 -0 0 0 -0 -0
0 0 0 0 0 0 0 0 0 0 0 0 0 -75 -32 -18 -12 -38 -32 -30 -20 -13 -2 -0 -0 -3 -7 -8 -5 -0 -0 0 0
0 0 0 0 0 0 0 0 0 0 0 0 0 -1 -81 -13 -14 -11 -35 -28 -21 -18 -12 -0 -0 -0 -3 -6 -15 -0 0 -0 -0
0 0 0 0 0 0 0 0 0 0 0 0 0 0 0 -11 -10 -30 -51 -53 -32 -16 -16 -7 -0 0 -0 -0 -6 -28 -0 0 -0
0 0 0 0 0 0 0 0 0 0 0 0 0 0 0 0 -49 -3 -44 -81 -52 -32 -16 -23 -2 -0 0 -0 -0 -14 -6 -0 -0
0 0 0 0 0 0 0 0 0 0 0 0 0 0 0 0 0 0 -11 -61 -82 -47 -42 -20 -8 -2 0 -0 -0 -2 -12 -0 0
0 0 0 0 0 0 0 0 0 0 0 0 0 0 0 0 0 0 -70 -22 -62 -54 -40 -25 -11 -15 -1 0 0 -0 -8 -15 0
0 0 0 0 0 0 0 0 0 0 0 0 0 0 0 0 -2 -0 0 -72 -41 -49 -75 -83 -13 -10 -6 -0 0 0 0 -6 -0
0 0 0 0 0 0 0 0 0 0 0 0 -0 0 0 0 -6 -17 -53 -56 -53 -30 -61 -40 -24 -32 -15 -5 -5 -1 -0 -0 -1
0 0 0 0 0 0 0 0 0 0 0 0 0 -0 -1 -6 -10 -6 -15 -29 -49 -84 -42 -41 -36 -27 -26 -26 -20 -12 -11 -0 -18
0 0 0 0 0 0 0 0 0 0 0 0 0 0 -5 -0 -2 -8 -29 -65 -76 -20 -37 -37 -46 -54 -51 -17 -28 -8 -5 -2 0
0 0 0 0 0 0 0 0 -41 0 0 0 0 0 0 0 0 -1 -4 0 0 0 -94 -43 -45 -67 -52 -41 -9 -14 -7 -5 -1
Wind_Speed
25 25 25 24 21 19 17 15 16 16 16 16 15 15 16 13 11 12 13 12 13 12 13 13 14 14 15 16 17 17 18 19 19
28 27 27 28 26 23 20 19 18 18 18 18 17 15 15 14 14 12 13 13 12 12 12 12 13 13 13 15 16 17 18 18 19
27 27 29 30 29 29 27 27 24 20 19 18 18 17 16 17 16 15 15 14 13 13 13 11 12 12 13 13 15 15 17 17 18
27 28 28 29 30 32 32 31 30 26 23 20 20 20 18 18 18 16 16 15 14 13 11 11 10 11 11 12 13 15 16 16 17
29 29 30 30 30 30 31 35 36 34 26 22 19 20 20 20 20 17 17 16 15 14 12 11 10 10 11 11 12 13 14 16 15
31 32 32 32 32 32 32 33 33 36 36 31 23 21 22 21 22 21 20 17 15 14 13 11 10 10 10 10 12 13 13 14 14
32 33 33 34 34 34 34 34 34 33 33 33 31 25 20 19 22 25 21 17 15 14 14 11 10 10 9 9 11 12 12 13 13
35 35 36 36 36 36 36 36 35 35 34 33 34 29 25 21 19 18 20 21 20 17 15 12 11 9 9 9 10 10 10 11 11
36 37 38 38 38 40 39 38 38 38 37 36 34 33 29 24 23 21 16 15 19 17 15 14 12 10 9 8 9 9 8 9 9
37 38 38 39 40 40 42 42 42 40 39 38 38 36 34 29 25 24 20 17 17 17 16 13 12 10 9 9 8 8 7 7 8
38 40 41 41 40 41 41 43 44 43 41 41 39 39 37 34 30 28 25 22 19 18 17 16 14 12 11 10 9 7 7 7 8
40 41 43 42 42 42 42 43 43 45 43 43 41 40 39 37 35 33 30 29 25 21 21 20 17 15 14 13 10 9 8 7 7
42 44 45 44 43 43 44 44 46 46 46 47 45 43 41 39 37 36 36 32 30 30 26 23 21 19 17 13 11 9 9 8 8
45 45 45 44 45 46 46 46 46 48 48 49 49 45 43 41 40 37 38 37 33 31 30 25 24 22 18 15 12 11 10 8 7
44 44 44 43 44 45 45 46 46 47 50 51 52 52 47 43 41 40 39 38 37 32 31 31 31 25 22 19 16 13 12 9 8
43 43 43 44 45 46 45 45 46 47 46 50 51 50 49 48 43 39 40 40 38 37 35 34 40 32 25 24 21 15 14 10 8
36 37 39 41 44 45 45 43 44 44 41 45 51 55 50 46 43 41 39 42 39 38 36 32 31 29 27 28 18 15 13 11 10
39 39 40 41 42 44 44 42 42 47 42 39 42 48 49 44 38 39 39 41 40 38 35 33 31 29 29 29 26 23 17 16 14
40 42 42 41 39 39 40 39 37 38 44 39 37 40 43 45 44 35 38 38 40 40 36 35 31 30 29 29 27 25 24 14 14
41 39 38 37 38 36 36 37 37 37 40 40 40 41 41 43 48 51 40 38 37 37 38 37 35 33 31 31 29 26 25 20 16
Wind_Direction
309 308 308 307 312 316 320 324 323 321 319 320 322 322 322 334 341 342 346 351 350 0 5 7 10 13 9 7 3 5 4 2 3
310 308 305 300 300 306 309 312 312 312 311 308 311 315 317 319 319 325 328 335 344 350 356 358 2 5 12 5 1 358 360 2 1
322 319 309 302 301 299 299 298 300 304 305 305 303 304 307 307 307 308 313 319 325 334 341 349 354 358 1 5 360 359 359 2 3
326 324 319 317 305 298 296 294 294 296 297 298 297 296 298 299 301 300 302 306 312 321 331 339 344 350 353 356 358 355 356 0 3
324 322 320 319 316 313 307 294 287 289 293 293 293 292 291 291 293 295 296 298 303 309 317 324 332 338 341 348 350 352 354 354 1
320 317 316 315 314 312 310 307 303 291 288 289 291 289 289 287 286 288 290 291 294 299 304 312 318 325 332 337 339 342 349 354 360
320 318 316 314 312 309 309 308 306 303 299 294 290 288 288 286 282 281 285 284 284 290 295 300 305 311 317 324 329 334 341 346 354
317 315 314 312 310 309 308 305 304 303 302 299 294 290 283 282 281 279 277 278 279 280 285 283 291 295 303 309 318 326 334 340 347
316 314 313 310 308 305 305 304 302 300 299 297 297 294 290 281 279 278 268 263 272 271 272 273 276 280 287 295 307 316 325 334 340
316 314 314 312 309 305 302 300 299 298 298 296 292 292 291 286 281 276 269 260 261 261 264 263 258 262 268 278 291 303 313 323 332
316 314 312 312 310 307 304 300 297 295 295 293 293 288 287 286 283 280 279 268 255 251 249 256 247 248 254 268 274 285 296 307 319
313 310 309 309 308 306 305 302 299 294 293 292 290 290 285 283 281 278 279 277 267 252 252 252 244 245 251 260 260 269 280 290 307
309 309 308 308 307 304 302 300 296 294 291 289 288 287 285 281 280 279 275 274 273 268 256 249 245 245 252 243 244 256 268 278 292
307 306 306 306 304 301 299 297 296 292 290 287 284 284 284 281 277 276 274 270 270 269 263 248 248 248 237 227 230 247 260 265 277
308 306 304 305 303 302 300 297 295 292 290 286 282 280 279 279 276 272 271 269 265 267 264 266 259 250 235 225 224 241 252 244 264
310 308 306 305 302 300 299 298 295 293 293 287 282 279 276 274 273 272 266 266 265 263 263 266 262 261 230 224 216 236 201 227 247
314 311 310 308 304 301 298 296 294 292 294 288 284 275 276 273 270 267 265 261 262 261 261 262 262 261 255 258 244 242 238 236 246
311 309 308 307 305 300 297 294 290 288 290 289 281 276 270 276 270 266 263 261 258 258 258 260 261 259 259 256 254 252 245 259 257
310 307 306 305 305 301 299 294 289 289 284 287 283 277 274 268 267 269 265 261 258 256 256 257 260 259 259 258 257 257 242 240 260
309 310 310 306 304 301 299 294 288 286 283 282 282 278 274 267 263 262 268 261 257 257 255 256 257 258 260 259 259 256 260 265 258